Showing default

GORIZONT 19, 20263

Orbit data source: Space-Track

GORIZONT 19, 20263 is a payload satellite owned by MSvyaz (CIS) in GEO that was launched on Thu, 28 Sep 1989 UTC via a PROTON-K/DM-2 launch vehicle from the Tyuratam Missile And Space Complex (TTMTR). Payload-class satellites include a variety of spacecraft equipped with specific instruments for various scientific and technological missions. These include communications satellites like Starlink; space stations such as the ISS; scientific satellites like the Hubble; Earth observation satellites from companies like Planet Labs, Umbra, and HawkEye 360; GPS; miniature CubeSats for education and research; and military/defense satellites.

Not visible in the next 10 days
Identifier
20263, 1989-081A
Orbit
GEO
Country
Flag of CISCIS
Related business
Manufacturer
NPO PM
Mission
Non-operational Civil Communications
Bus & Motor
GORIZONT, Unknown motor
Mass
2,120 kg wet, ~2,000 kg dry
Launch date (UTC)
1989-09-28 (37 years ago)
Launch vehicle
PROTON-K/DM-2
Launch site
Tyuratam Missile And Space Complex (TTMTR)
Object type
Payload
Rocket body
Debris
Shape & HBR
Cyl + 2 Pan, 4.8 m
Radar Cross Section
23.870 m², Large (>1 m²)

Expand to show TLE details & history
Last TLE update: 22 hours ago

TLE from 22 hours ago
0 GORIZONT 19
1 20263U 89081A   26125.06697221 -.00000177  00000-0  00000-0 0  9994
2 20263  12.1231 333.7871 0005319 284.9159  73.1689  1.00191881 46905
Epoch: 2026-05-05T01:36Z
TLE epoch observation values (Epoch: 2026-05-05T01:36:26.398Z)
Latitude
-0.37626°
Longitude
84.91489°
Altitude
35,802.204 km
Speed
3.074 km/s
True Right ascension
22h 07m 53s
True Declination
0° 22' 33"
Sunlit
Object was in daylight at epoch
Visualization orbit readout
Latitude
Unknown
Longitude
Unknown
Altitude
Unknown
Speed
Unknown
Apparent Right ascension
Unknown
Apparent Declination
Unknown
Sunlit
N/A
Visualization observer readout
Local Sidereal Time
07:20:21
Azimuth
Unknown
Elevation
Unknown
Doppler factor
Unknown
Orbital elements
Apogee altitude
35,832.45 km
Perigee altitude
35,787.571 km
Semi-major axis
42,188.148 km
Eccentricity
0.00053
Inclination
12.1231°
RAAN
333.7871°
Arg. of periapsis
284.9159°
True anomaly
73.22725°
Mean anomaly
73.1689°
Eccentric anomaly
73.19807°
Mean motion
0.25047 °/min
Orbital period
1,437.29 mins
BSTAR
0
Loading maneuver chart data...
Computing Atmospheric mass density...
Loading historical data...
Loading historical data...
Loading historical data...
Loading historical data...
Loading historical data...
Loading historical data...
Loading historical data...

Documentation

Showing up to 5 results
|